• Join FlightAware (Why Join?)
  • Login
  • US Flag 
12:49AM EST


 

Airport Tracker/Info


-or-


 

Live Flight TrackerFlight Track Log ✈ N143DE ✈ 23-Oct-2013 ✈ KMKC - KOUN

Flight Track Log - Related Links

Times and Time Zones

All times are in EDT time to prevent confusion due to time zone crossing. See the N143DE flight status page for this flight to view local times or setup timezone preferences in your user account.

Time Position Orientation Groundspeed Altitude Reporting Facility
EDT Latitude Longitude Course Direction KTS MPH feet Rate Location/Type
09:42AM 39.1333 -94.5833 67° East 128 147 1,300  Level Kansas City TRACON
09:43AM 39.1500 -94.5333 67° East 172 198 3,100 1,688 Climbing Kansas City TRACON
09:43AM 39.1500 -94.5167 90° East 176 203 4,000 1,471 Climbing Kansas City TRACON
09:45AM 39.0833 -94.4833 159° South 205 236 5,600 1,524 Climbing Kansas City TRACON
09:46AM 39.0500 -94.5167 218° Southwest 199 229 7,200 1,455 Climbing Kansas City TRACON
09:47AM 39.0028 -94.5569 214° Southwest 181 208 8,800 1,433 Climbing Kansas City Center
09:48AM 38.9558 -94.6083 220° Southwest 196 226 10,400 1,500 Climbing Kansas City Center
09:49AM 38.9133 -94.6531 193° South 205 236 11,900 1,645 Climbing Kansas City Center
09:50AM 38.8544 -94.6892 206° Southwest 208 239 13,800 1,597 Climbing Kansas City Center
09:51AM 38.8086 -94.7214 209° Southwest 197 227 15,200 1,403 Climbing Kansas City Center
09:52AM 38.7556 -94.7617 211° Southwest 197 227 16,700 1,210 Climbing Kansas City Center
09:53AM 38.7114 -94.7983 213° Southwest 198 228 17,700 1,113 Climbing Kansas City Center
09:54AM 38.6625 -94.8458 217° Southwest 196 226 19,000 1,016 Climbing Kansas City Center
09:55AM 38.6225 -94.8881 220° Southwest 195 224 19,800 774 Climbing Kansas City Center
09:56AM 38.5756 -94.9286 214° Southwest 208 239 20,600 871 Climbing Kansas City Center
09:57AM 38.5192 -94.9722 211° Southwest 214 246 21,600 871 Climbing Kansas City Center
09:58AM 38.4744 -95.0097 213° Southwest 204 235 22,400 774 Climbing Kansas City Center
09:59AM 38.4200 -95.0511 211° Southwest 205 236 23,200 726 Climbing Kansas City Center
10:00AM 38.3736 -95.0878 212° Southwest 205 236 23,900 387 Climbing Kansas City Center
10:01AM 38.3169 -95.1347 213° Southwest 215 247 24,000 48 Climbing Kansas City Center
10:02AM 38.2622 -95.1783 212° Southwest 229 264 24,000  Level Kansas City Center
10:03AM 38.1969 -95.2314 213° Southwest 243 280 24,000  Level Kansas City Center
10:04AM 38.1381 -95.2772 211° Southwest 257 296 24,000  Level Kansas City Center
10:05AM 38.0694 -95.3317 212° Southwest 259 298 24,000  Level Kansas City Center
10:06AM 38.0097 -95.3781 211° Southwest 262 302 24,000  Level Kansas City Center
10:07AM 37.9433 -95.4300 212° Southwest 255 293 24,000  Level Kansas City Center
10:08AM 37.8950 -95.4778 218° Southwest 254 292 24,000  Level Kansas City Center
10:09AM 37.8269 -95.5372 215° Southwest 249 287 24,000  Level Kansas City Center
10:10AM 37.7703 -95.5892 216° Southwest 250 288 24,000  Level Kansas City Center
10:12AM 37.7144 -95.6408 216° Southwest 249 287 24,000  Level Kansas City Center
10:13AM 37.6561 -95.6928 215° Southwest 254 292 24,000  Level Kansas City Center
10:14AM 37.6000 -95.7422 215° Southwest 250 288 24,000  Level Kansas City Center
10:15AM 37.5417 -95.7983 217° Southwest 257 296 24,000  Level Kansas City Center
10:16AM 37.4728 -95.8614 216° Southwest 257 296 24,000  Level Kansas City Center
10:17AM 37.4164 -95.9117 215° Southwest 252 290 24,000  Level Kansas City Center
10:18AM 37.3583 -95.9628 215° Southwest 252 290 24,000  Level Kansas City Center
10:19AM 37.3019 -96.0133 216° Southwest 251 289 24,000  Level Kansas City Center
10:20AM 37.2447 -96.0647 216° Southwest 252 290 24,000  Level Kansas City Center
10:21AM 37.1892 -96.1142 215° Southwest 248 285 24,000  Level Kansas City Center
10:22AM 37.1228 -96.1728 215° Southwest 244 281 24,000  Level Kansas City Center
10:23AM 37.0683 -96.2211 215° Southwest 242 278 24,000  Level Kansas City Center
10:24AM 37.0142 -96.2703 216° Southwest 241 277 24,000  Level Kansas City Center
10:25AM 36.9594 -96.3178 215° Southwest 240 276 24,000  Level Kansas City Center
10:26AM 36.9047 -96.3672 216° Southwest 241 277 24,000  Level Kansas City Center
10:27AM 36.8494 -96.4147 215° Southwest 241 277 24,000 -339 Level Kansas City Center
10:28AM 36.7825 -96.4742 215° Southwest 244 281 23,300 -484 Descending Kansas City Center
10:29AM 36.7222 -96.5278 215° Southwest 256 295 23,000 -484 Descending Kansas City Center
10:30AM 36.6628 -96.5789 215° Southwest 259 298 22,300 -871 Descending Kansas City Center
10:31AM 36.6019 -96.6328 215° Southwest 262 302 21,200 -1,016 Descending Kansas City Center
10:32AM 36.5386 -96.6875 215° Southwest 268 308 20,200 -1,016 Descending Kansas City Center
10:33AM 36.4739 -96.7436 215° Southwest 275 316 19,100 -1,065 Descending Kansas City Center
10:34AM 36.4103 -96.7992 215° Southwest 278 320 18,000 -968 Descending Kansas City Center
10:35AM 36.3331 -96.8675 215° Southwest 281 323 17,100 -768 Descending Kansas City Center
10:36AM 36.2692 -96.9225 215° Southwest 282 325 16,400 -672 Descending Kansas City Center
10:37AM 36.2081 -96.9758 215° Southwest 276 318 15,700 -774 Descending Kansas City Center
10:38AM 36.1439 -97.0306 215° Southwest 277 319 14,800 -823 Descending Kansas City Center
10:39AM 36.0789 -97.0858 215° Southwest 282 325 14,000 -677 Descending Kansas City Center
10:40AM 36.0158 -97.1406 215° Southwest 280 322 13,400 -726 Descending Kansas City Center
10:42AM 35.9361 -97.1989 211° Southwest 279 321 12,500 -726 Descending Kansas City Center
10:43AM 35.8628 -97.2311 200° South 280 322 11,900 -726 Descending Kansas City Center
10:44AM 35.7925 -97.2572 197° South 270 311 11,000 -1,065 Descending Kansas City Center
10:45AM 35.7231 -97.2847 198° South 265 305 9,700 -1,306 Descending Kansas City Center
10:46AM 35.6569 -97.3117 198° South 259 298 8,300 -1,548 Descending Kansas City Center
10:47AM 35.5775 -97.3292 190° South 246 283 6,500 -1,488 Descending Kansas City Center
10:48AM 35.5083 -97.3397 187° South 227 261 5,200 -1,113 Descending Fort Worth Center
10:49AM 35.4500 -97.3422 182° South 207 238 4,200 -567 Descending Fort Worth Center
10:50AM 35.3875 -97.3447 182° South 200 230 4,000 -94 Descending Fort Worth Center
10:51AM 35.3436 -97.3678 203° Southwest 163 188 4,000 -148 Level Fort Worth Center
10:52AM 35.3042 -97.4008 214° Southwest 161 185 3,700 -443 Descending Fort Worth Center
10:53AM 35.2603 -97.4289 208° Southwest 178 205 3,100 -590 Descending Fort Worth Center
10:54AM 35.2269 -97.4619 219° Southwest 146 168 2,500 -492 Descending Fort Worth Center
10:55AM 35.1978 -97.4847 213° Southwest 116 133 2,100 -397 Descending Fort Worth Center
10:56AM 35.2228 -97.4922 346° North 119 137 1,700 -400 Descending Fort Worth Center